Simultaneous Nadir Overpasses (SNOs) Predictions

Prediction of SNOs between GOES-17 and NOAA-20 Satellite Orbit:

Table of predicted SNOs for the next 14.0 days since TLE Epoch: 8/2/2019
Index Date Time (GOES-17) GOES-17 Lat,Lon NOAA-20 Lat,Lon Distance(km) Time Diff (sec)
1 08/03/2019 10:42:55 -0.04,-137.21 0.55,-139.80 295.54 80
2 08/04/2019 10:26:50 -0.04,-137.21 -0.45,-135.26 220.98 80
3 08/05/2019 22:46:05 0.04,-137.20 -0.74,-140.56 384.26 80
4 08/06/2019 22:30:01 0.04,-137.19 0.31,-136.04 132.05 80
5 08/08/2019 10:49:07 -0.04,-137.19 0.88,-141.30 468.58 80
6 08/09/2019 10:33:02 -0.04,-137.19 -0.12,-136.77 47.30 80
7 08/11/2019 22:33:33 0.05,-137.16 -0.02,-137.54 43.77 80
8 08/12/2019 22:17:27 0.05,-137.14 0.98,-133.01 471.64 80
9 08/14/2019 10:36:33 -0.06,-137.13 0.22,-138.27 130.19 80
10 08/15/2019 10:20:29 -0.06,-137.12 -0.84,-133.75 385.01 80




NCC Satellite Simultaneous Nadir Overpasses (SNOs) Prediction Service
